RH
39 42 48 51 50 51 53 52 46 46 50 47 37 29 23 19 18 18 18 18 16 14 12 11 9 8 6 6 6 6 6 5 5 4 4 5 6 6 5 5 5 6 6 7 7 7 7 5 5 5 7 9 7 7 7 7 7 10 14 16 16 14 10 10 11 11 10 9 9 8 9 10 9 10 11 11 11 11 14 20 23 23 20 18 17 17 17 17
41 41 46 49 49 51 54 50 46 45 44 38 31 24 19 19 20 19 18 16 14 12 10 9 8 8 6 5 5 5 6 5 4 4 5 5 6 5 5 5 6 6 6 6 6 7 6 5 5 5 7 11 9 8 9 8 8 10 14 15 16 13 10 9 10 9 9 9 9 9 10 10 11 11 11 12 12 12 16 21 21 21 18 16 17 17 17 17
46 41 44 48 46 49 52 47 43 39 33 29 25 21 20 22 21 19 16 13 12 11 9 8 8 7 6 5 5 5 6 5 4 5 5 5 5 5 5 5 5 6 5 5 5 6 7 6 6 6 8 11 9 9 10 8 8 10 13 14 12 10 10 10 10 9 10 10 10 11 11 11 12 12 12 13 13 15 20 21 19 19 18 17 18 18 19 19
53 44 42 47 45 47 49 42 37 32 27 24 22 22 24 23 20 18 15 12 10 10 9 8 6 6 5 5 5 6 7 6 4 5 5 5 5 5 5 5 5 5 5 5 6 6 7 7 7 7 10 12 10 10 10 8 9 11 12 11 9 8 9 10 10 11 11 12 11 11 11 11 12 12 13 13 15 18 21 19 18 17 17 18 19 19 20 20
59 48 42 46 46 48 47 36 31 28 24 23 23 24 24 21 18 14 12 10 9 9 9 7 5 5 5 6 6 6 8 7 5 5 5 5 5 5 5 5 4 5 5 6 6 7 7 7 7 8 10 12 10 11 10 8 10 13 12 9 9 9 9 11 11 11 12 12 12 11 11 11 11 13 14 14 17 21 20 17 17 17 17 19 20 20 21 20
59 49 42 43 45 48 44 32 27 24 23 24 24 24 21 17 13 10 9 8 8 8 8 5 5 5 5 5 6 7 9 7 5 4 4 4 5 5 5 5 5 6 6 7 7 6 7 6 7 8 8 10 9 10 9 9 11 14 12 9 10 11 11 12 12 12 12 12 12 11 11 11 12 15 16 16 18 19 18 18 18 19 19 19 20 20 20 20
57 49 42 41 44 48 41 29 25 23 24 25 23 21 16 12 9 7 7 7 8 7 6 5 4 5 5 5 5 5 6 5 4 4 4 4 5 5 5 5 6 7 7 7 7 7 7 6 7 7 8 10 9 10 11 10 11 13 13 11 10 11 11 12 12 12 12 12 11 11 10 11 14 16 16 16 17 18 18 18 19 20 20 20 20 20 20 20
54 48 45 45 45 45 38 28 25 25 24 23 20 16 12 9 7 6 7 6 6 5 5 5 4 5 5 6 6 4 4 5 4 4 4 4 5 5 5 6 6 8 8 7 8 8 7 7 8 8 10 11 9 11 12 11 13 13 12 11 11 11 11 12 12 11 11 11 11 11 11 13 16 16 16 17 17 17 17 17 18 20 21 21 20 20 20 20
51 47 48 46 42 40 36 29 27 26 23 20 15 12 9 7 6 7 6 4 4 4 4 4 4 4 4 6 6 5 5 5 4 4 4 4 5 6 6 6 7 8 8 7 7 8 8 8 8 9 10 10 9 12 11 13 15 13 12 12 12 12 12 12 11 10 11 11 11 11 12 14 17 16 16 17 16 16 17 17 19 20 21 21 21 21 20 20
42 41 41 38 35 37 34 27 26 24 19 15 11 9 8 7 7 6 5 3 3 4 4 4 4 4 4 5 6 5 5 5 5 5 5 5 6 6 6 6 7 8 9 7 6 8 8 9 9 9 10 10 11 13 13 13 13 12 13 13 12 13 13 13 11 11 11 11 12 12 14 15 17 17 17 16 15 16 17 18 20 20 21 21 21 21 20 20
35 34 32 30 32 34 31 26 24 20 15 12 8 8 7 7 6 5 4 4 4 4 4 4 4 5 4 4 5 5 5 5 5 5 6 6 6 6 6 6 7 8 9 7 6 7 8 8 8 9 10 11 11 14 14 11 11 12 13 14 14 12 13 13 12 12 11 12 12 13 17 17 16 17 17 16 16 17 17 19 20 20 21 21 20 19 19 19
35 33 30 29 33 32 27 23 19 15 12 9 7 7 7 6 4 4 4 4 4 3 4 4 4 6 6 4 5 6 5 5 6 6 7 6 6 7 6 7 7 8 9 7 7 7 8 8 8 9 11 11 12 16 15 10 11 14 13 16 16 13 14 14 12 13 12 12 12 14 19 19 17 17 17 17 17 17 17 19 20 20 20 19 18 18 19 19
37 37 35 32 33 30 23 17 14 11 9 8 7 7 6 5 4 4 4 3 4 3 4 4 4 6 6 5 6 6 6 6 7 7 7 7 7 7 7 7 7 7 7 7 7 8 8 9 10 11 11 12 13 14 13 10 12 14 14 15 15 15 16 14 14 14 13 13 12 14 20 20 18 17 18 18 17 17 18 19 19 20 19 18 18 19 20 21
40 39 39 35 31 25 18 13 11 8 7 7 7 6 5 4 4 4 4 4 4 4 5 5 5 6 6 6 6 6 7 7 7 7 7 7 8 8 8 8 8 7 7 7 7 8 9 10 11 12 11 12 13 13 14 13 12 13 15 15 14 16 16 14 15 15 13 13 12 14 20 20 18 17 18 18 17 17 18 19 20 20 20 18 19 20 21 22
45 41 40 35 28 20 14 11 9 7 7 8 7 5 4 4 5 5 4 4 4 5 5 5 7 7 6 6 7 7 8 8 8 8 8 8 8 9 8 8 8 7 7 8 8 8 10 10 11 12 11 11 12 15 18 15 12 13 16 18 16 17 17 16 17 16 14 13 12 15 19 20 19 18 18 18 18 19 19 20 20 20 20 19 20 21 22 23
45 42 37 32 24 15 11 9 8 8 8 8 6 5 5 5 5 5 4 5 5 5 6 6 7 8 8 7 7 8 8 9 9 9 8 8 8 8 8 9 8 8 8 9 9 9 10 10 12 12 11 11 12 15 17 15 14 14 16 19 18 18 19 18 18 16 15 14 14 15 18 20 19 17 18 19 19 20 20 21 20 20 20 21 22 22 23 25
42 41 35 28 20 12 8 8 7 8 8 7 6 5 5 5 4 5 5 5 5 5 6 6 7 8 8 7 8 8 8 9 9 9 9 8 9 8 9 9 8 8 9 9 10 10 10 10 12 12 11 12 13 14 16 17 17 17 17 18 19 19 21 21 20 17 16 17 16 16 17 19 18 17 19 20 21 21 21 22 22 22 22 23 23 23 24 25
41 40 33 25 18 10 7 8 7 7 6 5 5 5 5 5 5 5 5 5 5 7 8 8 8 10 10 8 9 9 8 9 9 9 9 9 9 9 10 10 9 10 10 10 11 11 12 11 11 12 12 13 14 15 17 18 19 20 20 20 20 21 22 22 20 18 17 18 18 16 17 20 18 18 20 21 22 22 23 23 22 22 23 24 24 25 25 25
41 40 30 24 18 11 7 7 7 6 5 5 6 5 6 5 5 5 6 6 7 9 10 10 10 12 11 9 9 9 8 10 10 9 9 9 10 10 10 11 10 11 11 11 12 13 13 12 12 14 15 16 15 17 18 18 20 21 21 22 23 23 22 21 18 18 18 19 19 18 20 21 20 19 20 22 23 24 25 24 23 23 24 25 26 26 26 26
40 39 28 21 16 11 8 7 6 6 6 7 6 7 10 9 7 7 6 7 8 9 10 9 10 10 9 9 9 9 9 10 9 9 9 9 10 11 11 11 11 11 13 15 15 13 13 14 16 16 17 16 15 17 18 18 19 21 24 25 24 22 20 18 17 18 18 19 20 19 22 23 20 20 21 23 25 25 26 24 24 25 26 27 27 28 27 28
38 36 28 19 12 9 9 7 6 6 6 6 6 9 12 10 9 9 8 8 8 9 9 9 9 9 9 9 9 9 10 10 9 9 10 10 10 11 12 12 12 13 14 16 16 14 14 16 18 16 16 15 16 18 18 19 21 22 25 25 23 22 20 17 18 18 18 21 21 20 23 23 21 21 23 24 25 26 26 26 26 26 27 28 29 29 30 32
36 32 27 18 10 8 8 6 6 6 6 6 6 9 9 8 9 10 10 10 9 10 10 9 9 10 9 9 9 10 11 11 10 10 9 10 11 13 13 13 14 14 14 15 16 15 16 17 17 15 15 16 18 19 19 20 21 23 24 23 22 22 20 18 18 19 19 21 22 21 24 24 22 22 24 26 26 27 27 28 28 28 28 30 30 31 33 34
34 28 25 16 8 7 6 6 6 6 6 6 6 7 7 7 8 9 10 10 11 11 10 9 10 10 10 10 10 10 11 11 12 10 10 11 12 14 15 14 14 15 15 16 16 16 17 17 15 15 17 18 18 19 20 20 20 22 23 23 22 22 23 22 20 20 20 23 25 25 26 26 23 24 26 27 28 29 30 30 30 30 31 32 33 34 35 36
32 27 24 14 7 7 6 5 6 6 6 6 6 7 7 7 8 9 11 11 11 12 10 10 10 10 10 10 10 11 12 11 12 11 11 11 13 14 14 15 16 16 16 17 17 16 17 16 15 17 18 18 18 19 21 21 20 22 23 22 22 21 23 24 22 21 22 26 29 27 26 26 25 27 28 28 29 30 31 31 31 32 33 34 35 36 37 38
30 26 22 12 7 7 6 6 6 6 7 6 7 7 7 8 8 9 11 12 12 12 12 12 11 10 10 11 11 11 12 12 12 12 11 12 13 15 15 15 16 17 18 18 17 17 17 15 16 19 18 17 18 20 21 21 21 22 23 22 21 22 24 23 24 25 25 28 28 27 29 30 27 28 29 29 31 31 31 32 32 34 34 36 38 38 39 38
27 26 19 10 8 7 8 9 7 6 7 7 7 7 7 8 9 9 12 14 14 13 14 13 12 12 11 11 12 12 14 14 13 13 12 12 13 16 17 15 15 18 20 19 18 17 16 16 17 19 19 18 19 20 20 21 22 23 23 23 22 23 25 25 26 28 29 29 27 27 32 33 30 29 30 31 32 32 32 33 33 34 36 39 41 40 39 38
25 23 15 8 8 8 9 10 7 7 9 8 8 8 8 9 9 9 14 19 17 14 14 12 12 13 11 11 11 13 15 15 14 13 13 13 13 15 17 17 17 18 18 19 20 19 18 18 19 20 19 19 19 19 20 20 23 24 22 23 23 23 26 28 28 30 30 30 29 29 31 33 31 31 32 32 34 33 34 35 36 37 39 41 42 41 40 39
23 20 11 8 9 8 8 8 7 7 8 9 9 8 9 9 9 11 17 20 16 13 14 13 12 12 11 12 12 12 14 14 14 15 14 14 13 15 17 18 18 19 19 20 21 19 19 20 21 23 21 19 20 19 20 20 23 24 23 24 24 25 27 27 29 31 31 33 34 31 31 34 33 33 34 33 35 36 37 39 40 40 42 43 43 43 42 42
20 13 9 8 8 8 8 7 7 7 7 9 8 8 9 9 10 13 17 18 15 13 13 14 12 12 12 14 14 13 14 14 15 15 15 15 14 14 16 18 18 19 19 21 21 21 21 20 22 24 21 20 20 19 20 22 23 22 23 24 24 26 28 29 31 31 31 38 39 33 33 37 37 34 34 36 37 40 42 42 43 44 45 45 44 44 45 46
14 9 9 8 7 7 7 6 7 7 7 8 8 9 9 10 14 17 17 16 16 15 14 14 13 13 14 16 15 14 15 16 15 16 15 15 15 15 16 16 18 20 21 21 23 23 21 21 22 22 20 19 20 20 20 22 22 22 23 23 23 26 28 31 31 29 34 41 39 34 34 39 44 38 35 41 44 44 46 46 46 46 46 47 46 47 49 47
11 9 9 8 7 7 6 6 6 6 7 8 8 9 11 14 16 17 16 15 16 16 15 16 16 14 16 17 16 15 16 16 15 17 18 16 16 16 16 18 19 21 22 21 23 24 23 24 24 21 20 20 21 21 21 22 23 24 24 23 24 26 26 29 30 32 42 43 36 35 36 40 47 42 39 46 48 47 48 48 49 49 49 50 51 51 50 45
9 9 7 7 7 6 6 6 6 6 7 8 9 10 14 17 15 14 15 14 16 17 16 18 17 15 16 17 16 17 18 16 15 17 20 19 19 20 19 21 22 23 22 20 22 25 25 25 23 21 20 21 21 21 23 24 24 24 24 24 29 31 31 34 35 36 42 40 35 36 39 42 44 42 43 47 48 47 49 49 51 51 52 53 54 53 49 43
8 7 7 7 6 5 5 6 6 7 7 8 10 12 15 16 16 16 14 13 16 18 17 18 17 16 17 17 16 18 18 17 16 17 19 18 19 21 21 21 23 23 22 20 20 22 25 25 23 23 22 20 21 21 23 25 24 25 25 28 34 38 41 44 40 40 42 37 34 36 42 45 42 41 45 46 46 48 49 51 52 53 54 54 54 52 48 43
7 7 7 6 6 5 5 6 6 7 7 8 12 14 13 13 15 16 14 13 16 17 18 18 17 16 18 16 16 17 17 17 18 18 18 17 17 20 20 20 22 23 22 21 20 21 25 27 25 24 23 21 22 23 24 27 28 27 26 29 35 38 43 47 45 46 47 41 37 39 45 47 43 43 47 46 47 49 50 52 54 55 56 56 54 51 48 43
8 7 6 6 5 5 6 6 7 7 7 9 13 14 13 13 13 13 14 15 16 16 18 19 17 17 17 16 16 17 17 17 19 19 18 17 18 19 21 21 22 24 25 24 23 22 24 26 25 23 21 22 23 24 26 29 30 29 28 31 36 36 39 45 45 44 46 48 46 43 44 44 42 45 48 47 49 49 51 54 56 57 57 56 55 51 48 43
7 7 6 5 5 6 7 7 7 7 8 11 14 14 15 15 15 16 17 18 17 17 18 18 19 17 15 16 17 17 18 18 18 18 17 19 21 21 21 23 23 24 25 25 25 24 24 25 25 25 23 23 24 24 27 29 29 29 31 33 35 36 38 44 47 42 45 54 50 42 43 44 44 47 48 48 51 51 53 57 58 58 57 57 55 52 49 42
6 6 6 6 5 6 7 7 8 8 9 13 15 14 15 16 17 19 20 18 18 18 16 15 18 17 14 15 16 15 18 20 18 18 17 20 23 22 22 24 24 23 24 26 26 24 25 27 26 26 27 26 24 25 27 28 29 31 33 33 34 38 40 44 49 49 50 56 48 41 47 50 50 53 51 49 53 53 54 58 58 58 59 58 57 56 51 40
6 6 6 6 6 7 8 9 9 9 10 14 15 13 15 17 18 20 20 19 19 19 16 15 18 18 14 14 16 16 19 20 18 18 18 20 22 23 23 24 25 23 24 26 27 25 26 29 27 25 27 27 26 28 28 28 29 31 33 34 36 42 45 45 51 56 59 62 53 43 48 54 53 54 53 51 54 55 56 58 59 60 61 59 59 58 50 37
6 8 9 8 7 8 9 10 9 10 12 15 15 14 16 19 20 20 19 19 19 19 16 15 17 17 16 16 16 17 19 20 18 18 19 20 22 24 23 23 25 25 24 26 27 25 26 29 28 25 26 27 27 28 30 30 31 32 34 35 36 41 46 47 51 57 61 67 64 54 52 55 54 52 52 53 54 57 59 61 63 64 62 62 62 58 47 38
7 10 11 9 8 9 9 10 11 13 16 16 16 16 18 20 22 20 18 18 20 18 16 16 17 16 17 17 17 17 19 19 18 18 19 20 22 25 25 24 26 26 26 26 28 27 26 29 30 28 27 29 29 29 28 29 32 34 36 39 40 42 45 48 51 55 59 66 71 68 60 54 52 53 53 54 56 59 62 64 65 65 64 64 62 55 46 40
8 11 13 10 8 8 9 11 13 15 16 16 17 18 19 21 23 22 18 18 21 19 16 18 19 17 17 17 18 18 18 18 18 19 19 20 22 25 27 28 29 29 28 27 28 28 27 28 30 29 29 30 30 29 28 28 31 34 37 39 42 44 48 54 57 57 59 63 68 73 69 55 50 53 55 56 59 61 63 65 64 63 64 63 60 54 48 43
10 14 13 9 9 9 11 15 16 15 16 18 19 20 20 20 22 22 20 19 20 20 18 19 20 19 19 19 19 19 19 19 19 20 20 21 25 28 30 30 31 31 29 27 28 29 28 30 32 31 30 31 30 29 29 31 32 33 36 38 42 47 50 56 61 59 61 63 63 71 73 59 51 55 57 59 62 64 65 66 65 64 64 62 57 53 49 44
12 13 11 9 8 8 12 17 18 17 18 20 20 20 20 20 21 22 21 20 21 20 19 21 22 21 21 21 20 20 21 20 20 21 21 22 28 33 33 31 31 31 29 28 29 29 29 31 33 32 31 30 30 30 30 32 34 35 37 39 44 49 50 53 59 58 62 65 64 72 75 60 53 57 59 60 64 66 67 67 66 65 64 61 58 52 48 45
10 10 9 8 8 8 13 18 18 18 19 19 19 19 19 19 20 20 20 20 20 19 19 21 22 21 22 22 21 21 23 22 22 23 22 22 28 32 32 31 31 30 31 31 31 31 32 31 32 35 37 34 33 34 34 34 35 36 37 39 43 48 51 55 57 59 64 64 63 72 72 57 53 59 58 59 63 64 65 66 65 65 64 62 58 51 47 46
10 10 9 8 7 8 13 16 16 17 18 18 18 18 18 18 18 18 19 20 19 18 19 21 21 21 22 23 22 23 24 23 23 24 22 23 29 32 30 29 31 33 34 32 30 31 33 32 32 37 42 41 40 40 39 36 36 37 38 41 44 49 54 56 58 63 68 61 60 69 65 51 51 56 56 58 61 60 62 63 64 66 66 63 58 51 47 47
11 13 12 11 9 8 11 13 13 16 18 17 17 17 16 18 18 17 18 19 18 17 19 20 20 20 22 24 24 24 25 25 24 24 24 24 29 33 31 29 31 35 35 30 28 30 33 34 33 35 39 40 39 38 37 36 37 39 41 44 48 51 53 55 58 63 65 59 57 63 60 53 52 54 56 59 60 60 61 62 64 66 67 64 59 53 50 48
11 14 14 13 12 11 11 12 12 14 15 15 15 16 16 18 19 18 18 19 18 18 19 19 20 21 22 24 24 24 26 27 25 25 26 26 29 33 33 32 32 33 32 29 28 31 34 36 37 37 38 38 37 36 36 37 38 39 42 46 50 51 52 55 57 57 57 58 56 54 56 57 54 54 58 59 59 61 62 62 65 66 66 65 60 56 53 50
11 12 11 11 14 16 14 14 13 13 14 13 14 16 16 17 19 18 18 18 18 18 19 20 21 22 22 22 23 24 26 27 27 28 29 28 29 31 33 35 35 32 31 31 30 32 35 37 38 38 39 38 37 36 37 38 39 40 42 45 48 51 53 53 54 52 53 58 56 50 54 57 55 55 59 60 60 61 62 63 66 67 68 66 62 58 55 52
10 10 8 9 13 14 13 14 14 14 14 13 13 15 16 17 18 18 17 18 18 18 19 20 21 21 21 21 22 23 24 26 26 28 30 30 29 30 30 33 36 34 32 32 31 32 35 37 38 39 40 39 39 39 39 39 40 40 42 43 43 46 50 51 52 52 52 54 53 51 55 56 54 57 59 59 60 61 62 65 68 69 69 66 62 59 55 54
10 10 8 8 11 11 10 12 14 14 14 12 13 15 15 16 18 17 16 17 18 18 18 19 21 21 21 21 22 23 24 25 24 25 29 31 30 30 28 29 34 36 32 31 33 33 34 38 38 38 39 39 39 39 39 39 39 39 40 41 41 43 46 50 53 54 54 55 54 55 57 55 54 57 58 59 60 61 63 65 68 70 70 67 64 60 56 54
9 8 7 9 12 11 10 10 11 13 14 12 14 15 14 15 17 16 16 16 17 19 19 19 20 23 23 23 24 24 25 26 25 24 26 27 27 28 27 26 31 36 34 33 35 35 36 38 37 38 41 40 37 38 39 38 39 40 40 41 42 43 45 47 50 53 55 55 55 57 57 54 53 55 56 58 60 61 63 65 67 69 70 68 66 62 58 54
7 7 6 10 13 11 10 10 10 12 13 13 15 15 15 15 13 13 15 15 15 17 18 18 19 21 23 25 26 26 26 25 25 24 24 24 25 25 26 25 28 33 36 36 37 37 38 38 38 40 43 41 37 38 38 39 43 44 41 42 43 43 44 45 46 49 51 51 52 52 51 50 51 53 54 56 59 61 63 65 67 68 68 69 68 65 60 54